EW2649 Weather Reports


time (UTC)temp
C
wind
direction
speed
KPH
gust
KPH
rain 1hr
cm
rain 24hr
cm
rain mn
cm
humidity
%
barometer
mb
20260507001521 23 323 4.8 16.1 0.00 0.00 0.00 59 1013.4
20260507000020 23 31 3.2 16.1 0.00 0.00 0.00 60 1013.4
20260506234519 22 16 4.8 16.1 0.00 0.00 0.00 61 1013.3
20260506233019 23 38 4.8 16.1 0.00 0.00 0.00 61 1013.5
20260506231517 23 346 8.0 20.9 0.00 0.00 0.00 61 1013.5
20260506230013 23 53 3.2 14.5 0.00 0.00 0.00 60 1013.7
20260506224511 23 35 3.2 16.1 0.00 0.00 0.00 58 1013.9
20260506223006 23 32 1.6 16.1 0.00 0.00 0.00 60 1014.0
20260506221502 23 49 3.2 11.3 0.00 0.00 0.00 60 1014.2
20260506220059 22 128 6.4 14.5 0.00 0.00 0.00 58 1014.4
20260506214557 22 98 4.8 9.7 0.00 0.00 0.00 59 1014.5
20260506213110 22 28 1.6 12.9 0.00 0.00 0.00 59 1014.7
20260506211548 22 48 3.2 11.3 0.00 0.00 0.00 59 1014.8
20260506210042 21 69 3.2 19.3 0.00 0.00 0.00 62 1015.0
20260506204538 21 65 1.6 16.1 0.00 0.00 0.00 64 1015.1
20260506203034 21 105 1.6 12.9 0.00 0.00 0.00 61 1015.3
20260506201531 20 325 0.0 9.7 0.00 0.00 0.00 64 1015.5
20260506200027 20 69 3.2 12.9 0.00 0.00 0.00 68 1015.6
20260506194526 20 39 4.8 12.9 0.00 0.00 0.00 66 1015.8
20260506193022 20 46 1.6 9.7 0.00 0.00 0.00 66 1016.0
20260506191519 19 27 3.2 12.9 0.00 0.00 0.00 68 1016.0
20260506190016 19 75 3.2 16.1 0.00 0.00 0.00 69 1016.1
20260506184517 18 87 1.6 8.0 0.00 0.00 0.00 72 1016.1
20260506183013 17 336 4.8 8.0 0.00 0.00 0.00 72 1016.2
20260506181507 17 115 0.0 9.7 0.00 0.00 0.00 77 1016.4
20260506180002 16 331 3.2 8.0 0.00 0.00 0.00 77 1016.5
20260506174556 16 159 0.0 9.7 0.00 0.00 0.00 82 1016.6
20260506173012 15 237 0.0 6.4 0.00 0.00 0.00 82 1016.7
20260506171606 14 107 0.0 6.4 0.00 0.00 0.00 82 1016.8
20260506170019 14 109 1.6 4.8 0.00 0.00 0.00 83 1016.9
20260506164614 13 195 0.0 1.6 0.00 0.00 0.00 85 1016.9
20260506163030 13 196 0.0 3.2 0.00 0.00 0.00 86 1016.8
20260506161623 13 195 0.0 3.2 0.00 0.00 0.00 86 1016.8
20260506160044 13 198 1.6 3.2 0.00 0.00 0.00 87 1016.9
20260506154634 12 181 0.0 3.2 0.00 0.00 0.00 89 1016.8
20260506153108 12 182 1.6 4.8 0.00 0.00 0.00 89 1016.8
20260506151508 12 180 1.6 4.8 0.00 0.00 0.00 90 1016.8
20260506150103 12 184 3.2 4.8 0.00 0.00 0.00 91 1016.9
20260506144519 11 194 0.0 3.2 0.00 0.00 0.00 91 1016.8
20260506143107 11 193 1.6 4.8 0.00 0.00 0.00 91 1016.8
20260506141527 11 193 1.6 3.2 0.00 0.00 0.00 91 1016.6
20260506140119 11 194 0.0 1.6 0.00 0.00 0.00 91 1016.5
20260506134540 11 193 0.0 1.6 0.00 0.00 0.00 91 1016.3
20260506133125 11 194 0.0 3.2 0.00 0.00 0.00 91 1016.2
20260506131552 11 194 0.0 1.6 0.00 0.00 0.00 91 1016.0
20260506130003 11 194 1.6 4.8 0.00 0.00 0.00 91 1015.9
20260506124608 10 197 0.0 3.2 0.00 0.00 0.00 91 1015.8
20260506123015 10 188 1.6 4.8 0.00 0.00 0.00 91 1015.8
20260506121614 10 189 3.2 6.4 0.00 0.00 0.00 91 1015.8
20260506120029 10 189 1.6 4.8 0.00 0.00 0.00 91 1015.7
20260506114625 10 190 1.6 4.8 0.00 0.03 0.00 90 1015.6
20260506113044 10 223 1.6 3.2 0.00 0.03 0.00 89 1015.5
20260506111502 10 224 0.0 1.6 0.00 0.03 0.00 89 1015.5
20260506110053 11 224 1.6 3.2 0.00 0.03 0.00 89 1015.2
20260506104514 11 223 0.0 3.2 0.00 0.03 0.00 88 1015.1
20260506103105 12 224 0.0 4.8 0.00 0.03 0.00 88 1015.1
20260506101525 12 223 0.0 1.6 0.00 0.03 0.00 88 1015.1
20260506100121 12 224 0.0 1.6 0.00 0.03 0.00 88 1015.1
20260506094540 12 223 0.0 3.2 0.00 0.03 0.00 88 1015.1
20260506093133 12 223 0.0 3.2 0.00 0.03 0.00 88 1015.1
20260506091555 12 223 1.6 3.2 0.00 0.03 0.00 88 1015.0
20260506090020 12 223 0.0 3.2 0.00 0.03 0.00 87 1015.0
20260506084612 12 224 0.0 1.6 0.00 0.03 0.00 88 1015.0
20260506083033 12 224 1.6 3.2 0.00 0.03 0.00 87 1015.1
20260506081622 12 223 0.0 0.0 0.00 0.03 0.00 87 1015.1
20260506073038 12 223 0.0 0.0 0.00 0.03 0.00 85 1014.9
20260506071629 12 224 0.0 3.2 0.00 0.03 0.00 85 1014.8
20260506061526 12 224 0.0 0.0 0.00 0.03 0.03 83 1014.4
20260506060119 12 224 0.0 1.6 0.00 0.03 0.03 82 1014.3
20260506044607 13 242 3.2 6.4 0.00 0.03 0.03 81 1013.8
20260506043028 13 256 4.8 6.4 0.00 0.03 0.03 81 1013.7
20260506041619 13 236 6.4 16.1 0.00 0.03 0.03 81 1013.5
20260506040041 13 228 8.0 17.7 0.00 0.03 0.03 81 1013.2
20260506034634 13 239 1.6 6.4 0.00 0.03 0.03 81 1013.1
20260506033058 13 254 3.2 8.0 0.00 0.03 0.03 81 1012.8
20260506031514 13 224 6.4 9.7 0.00 0.03 0.03 81 1012.8
20260506030107 13 227 3.2 14.5 0.00 0.03 0.03 81 1012.6
20260506024552 13 300 9.7 19.3 0.00 0.03 0.03 81 1012.4
20260506023124 14 234 4.8 12.9 0.00 0.03 0.03 80 1012.1
20260506021541 14 217 11.3 17.7 0.00 0.03 0.03 78 1012.1
20260506020003 14 259 8.0 14.5 0.00 0.03 0.03 77 1012.1
20260506014556 15 241 11.3 17.7 0.00 0.03 0.03 77 1012.1
20260506013023 15 252 9.7 17.7 0.00 0.03 0.03 76 1012.1
20260506011611 15 236 4.8 17.7 0.00 0.03 0.03 77 1012.0
20260506010031 15 250 9.7 16.1 0.00 0.03 0.03 77 1012.0
20260506004625 15 254 4.8 16.1 0.00 0.03 0.03 78 1012.0
20260506003045 14 284 11.3 24.1 0.00 0.03 0.03 78 1012.0